Heubes-Wetterstation in 44289 Dortmund
Heubes-Wetterstation

Messwerte der letzten 60 Minuten im Minuten-Intervall (Wetterstation 44289 Dortmund)

Datum & Uhrzeit Temp. Feucht. Wind-Ø Böen Sekt.  Regen Rate Luftdruck
18.05.2021 - 12:529.8 °C92%3 km/h 0 km/h NW0.0 mm 2.8 mm 1011.6 hPa, langsam steigend
18.05.2021 - 12:519.9 °C92%3 km/h 1 km/h NW0.2 mm 3.2 mm 1011.5 hPa, gleichbleibend
18.05.2021 - 12:5010.2 °C92%3 km/h 1 km/h W-SW0.0 mm 4.6 mm 1011.5 hPa, gleichbleibend
18.05.2021 - 12:4910.4 °C92%3 km/h 10 km/h SW0.0 mm 6.8 mm 1011.5 hPa, langsam steigend
18.05.2021 - 12:4810.7 °C92.5%2 km/h 19 km/h W-NW0.0 mm 8.0 mm 1011.4 hPa, gleichbleibend
18.05.2021 - 12:4711.0 °C93%1 km/h 10 km/h N0.2 mm 9.8 mm 1011.4 hPa, gleichbleibend
18.05.2021 - 12:4611.2 °C94%1 km/h 23 km/h NW0.2 mm 14.4 mm 1011.4 hPa, gleichbleibend
18.05.2021 - 12:4511.2 °C94%0 km/h 16 km/h NW0.2 mm 0.0 mm 1011.4 hPa, langsam steigend
18.05.2021 - 12:4411.3 °C94%0 km/h 10 km/h W-SW0.0 mm 0.0 mm 1011.3 hPa, langsam steigend
18.05.2021 - 12:4311.3 °C94%0 km/h 0 km/h N-NW0.0 mm 0.0 mm 1011.1 hPa, gleichbleibend
18.05.2021 - 12:4211.4 °C94%0 km/h 0 km/h NW0.0 mm 0.0 mm 1011.1 hPa, gleichbleibend
18.05.2021 - 12:4111.4 °C94%0 km/h 0 km/h W0.0 mm 0.0 mm 1011.1 hPa, langsam steigend
18.05.2021 - 12:4011.4 °C93.7%0 km/h 0 km/h W0.0 mm 0.0 mm 1011.0 hPa, gleichbleibend
18.05.2021 - 12:3911.4 °C94%0 km/h 0 km/h W0.0 mm 0.0 mm 1011.0 hPa, gleichbleibend
18.05.2021 - 12:3811.5 °C93%0 km/h 0 km/h W0.0 mm 0.0 mm 1011.0 hPa, gleichbleibend
18.05.2021 - 12:3711.6 °C94%0 km/h 0 km/h W0.0 mm 0.0 mm 1011.0 hPa, langsam steigend
18.05.2021 - 12:3611.6 °C94%0 km/h 0 km/h W0.0 mm 0.0 mm 1010.9 hPa, gleichbleibend
18.05.2021 - 12:3511.6 °C94%0 km/h 0 km/h W0.0 mm 0.0 mm 1010.9 hPa, langsam steigend
18.05.2021 - 12:3411.7 °C94%0 km/h 0 km/h W0.0 mm 0.0 mm 1010.8 hPa, gleichbleibend
18.05.2021 - 12:3311.7 °C94%0 km/h 0 km/h W0.0 mm 0.0 mm 1010.8 hPa, langsam fallend
18.05.2021 - 12:3211.7 °C94%0 km/h 0 km/h W0.0 mm 0.0 mm 1010.9 hPa, gleichbleibend
18.05.2021 - 12:3111.8 °C94.7%1 km/h 0 km/h W0.0 mm 0.0 mm 1010.9 hPa, gleichbleibend
18.05.2021 - 12:3011.9 °C95%1 km/h 0 km/h W0.0 mm 0.0 mm 1010.9 hPa, gleichbleibend
18.05.2021 - 12:2911.8 °C95%1 km/h 0 km/h W0.0 mm 0.0 mm 1010.9 hPa, gleichbleibend
18.05.2021 - 12:2811.7 °C94%1 km/h 0 km/h SW0.0 mm 0.0 mm 1010.9 hPa, gleichbleibend
18.05.2021 - 12:2711.6 °C95%1 km/h 0 km/h SW0.0 mm 0.0 mm 1010.9 hPa, gleichbleibend
18.05.2021 - 12:2611.6 °C95%1 km/h 0 km/h SW0.0 mm 0.0 mm 1010.9 hPa, gleichbleibend
18.05.2021 - 12:2511.4 °C95%1 km/h 0 km/h SW0.0 mm 0.0 mm 1010.9 hPa, gleichbleibend
18.05.2021 - 12:2411.2 °C95%1 km/h 0 km/h SW0.0 mm 0.0 mm 1010.9 hPa, langsam fallend
18.05.2021 - 12:2311.2 °C94%1 km/h 8 km/h SW0.0 mm 0.0 mm 1011.0 hPa, gleichbleibend
18.05.2021 - 12:2211.1 °C94%1 km/h 3 km/h SW0.0 mm 0.0 mm 1011.0 hPa, gleichbleibend
18.05.2021 - 12:2111.2 °C94%0 km/h 5 km/h SW0.0 mm 0.0 mm 1011.0 hPa, gleichbleibend
18.05.2021 - 12:2011.2 °C94%0 km/h 5 km/h SW0.0 mm 0.0 mm 1011.0 hPa, gleichbleibend
18.05.2021 - 12:1911.2 °C95%0 km/h 8 km/h W-SW0.0 mm 0.0 mm 1011.0 hPa, gleichbleibend
18.05.2021 - 12:1811.2 °C94.5%0 km/h 5 km/h SW0.0 mm 0.0 mm 1011.0 hPa, gleichbleibend
18.05.2021 - 12:1711.2 °C94%0 km/h 0 km/h SW0.0 mm 0.0 mm 1011.0 hPa, gleichbleibend
18.05.2021 - 12:1611.3 °C95%0 km/h 0 km/h SW0.0 mm 0.0 mm 1011.0 hPa, gleichbleibend
18.05.2021 - 12:1511.3 °C95%0 km/h 0 km/h SW0.0 mm 0.0 mm 1011.0 hPa, gleichbleibend
18.05.2021 - 12:1411.4 °C94.5%0 km/h 0 km/h SW0.0 mm 0.0 mm 1011.0 hPa, gleichbleibend
18.05.2021 - 12:1311.4 °C94%0 km/h 0 km/h SW0.0 mm 0.0 mm 1011.0 hPa, gleichbleibend
18.05.2021 - 12:1211.6 °C95%0 km/h 0 km/h S-SW0.0 mm 0.0 mm 1011.0 hPa, gleichbleibend
18.05.2021 - 12:1111.7 °C95%0 km/h 0 km/h S-SW0.0 mm 0.0 mm 1011.0 hPa, gleichbleibend
18.05.2021 - 12:1011.8 °C95%0 km/h 3 km/h S-SW0.0 mm 0.0 mm 1011.0 hPa, gleichbleibend
18.05.2021 - 12:0911.8 °C95%0 km/h 0 km/h SW0.0 mm 0.0 mm 1011.0 hPa, gleichbleibend
18.05.2021 - 12:0811.7 °C95%0 km/h 0 km/h SW0.0 mm 0.0 mm 1011.0 hPa, gleichbleibend
18.05.2021 - 12:0711.8 °C95%0 km/h 0 km/h SW0.0 mm 0.0 mm 1011.0 hPa, gleichbleibend
18.05.2021 - 12:0611.8 °C95%0 km/h 0 km/h SW0.0 mm 0.0 mm 1011.0 hPa, gleichbleibend
18.05.2021 - 12:0511.8 °C95%0 km/h 0 km/h SW0.0 mm 0.0 mm 1011.0 hPa, gleichbleibend
18.05.2021 - 12:0411.8 °C95%0 km/h 0 km/h SW0.0 mm 0.0 mm 1011.0 hPa, gleichbleibend
18.05.2021 - 12:0311.8 °C95%0 km/h 0 km/h SW0.0 mm 0.0 mm 1011.0 hPa, gleichbleibend
18.05.2021 - 12:0211.8 °C95%0 km/h 0 km/h SW0.0 mm 0.0 mm 1011.0 hPa, gleichbleibend
18.05.2021 - 12:0111.9 °C96%0 km/h 3 km/h SW0.0 mm 0.0 mm 1011.0 hPa, gleichbleibend
18.05.2021 - 12:0012.1 °C96%0 km/h 1 km/h W-SW0.0 mm 0.0 mm 1011.0 hPa, gleichbleibend
18.05.2021 - 11:5912.1 °C96%0 km/h 5 km/h W-SW0.0 mm 0.0 mm 1011.0 hPa, langsam fallend
18.05.2021 - 11:5812.2 °C97%0 km/h 5 km/h NW0.0 mm 0.0 mm 1011.1 hPa, gleichbleibend
18.05.2021 - 11:5712.2 °C97%0 km/h 0 km/h S-SW0.0 mm 0.0 mm 1011.1 hPa, gleichbleibend
18.05.2021 - 11:5612.2 °C97%0 km/h 0 km/h S-SW0.0 mm 0.0 mm 1011.1 hPa, gleichbleibend
18.05.2021 - 11:5512.0 °C97%0 km/h 3 km/h S-SW0.0 mm 0.0 mm 1011.1 hPa, gleichbleibend
18.05.2021 - 11:5411.8 °C97%0 km/h 0 km/h SW0.0 mm 0.0 mm 1011.1 hPa, gleichbleibend
18.05.2021 - 11:5311.8 °C97%0 km/h 0 km/h W-SW0.0 mm 0.0 mm 1011.1 hPa, gleichbleibend